Fort Leonard Wood, MO

4:31 PM CDT on October 20, 2019 (GMT -0500)
Waynesville Regional At Forney Field

Weather History for KTBN - May, 2019

Change the Weather History Date:

Wednesday, May 8, 2019

  Actual Average Record
Temperature  
Mean Temperature 66 °F -  
Max Temperature 74 °F 73 °F 93 °F (2000)
Min Temperature 61 °F 55 °F 48 °F (2001)
Cooling Degree Days 1    
Growing Degree Days 16 (Base 50)    
Moisture  
Dew Point 61 °F    
Average Humidity 85    
Maximum Humidity 96    
Minimum Humidity 64    
Precipitation  
Precipitation 0.08 in - - ()
Sea Level Pressure  
Sea Level Pressure 29.76 in    
Wind  
Wind Speed 11 mph (SSE)    
Max Wind Speed 18 mph    
Max Gust Speed 29 mph    
Visibility 10 miles    
Events Rain    
Averages and records for this station are not official NWS values.
T = Trace of Precipitation, MM = Missing Value Source: NWS Daily Summary

Daily Weather History Graph

Daily Weather History Graph

Search for Another Location

Airport or City:

Astronomy

May. 08, 2019 Rise Set
Actual Time 6:05 AM CDT 8:05 PM CDT
Civil Twilight 5:36 AM CDT 8:34 PM CDT
Nautical Twilight 5:01 AM CDT 9:09 PM CDT
Astronomical Twilight 4:24 AM CDT 9:47 PM CDT
Moon 9:04 AM CDT (5/8) No Moon Set
Length of Visible Light 14h 57m
Length of Day
13h 59m
Waxing Crescent, 16% of the Moon is Illuminated
May 8
Waxing Crescent
May 11
First Quarter
May 18
Full
May 26
Last Quarter
Jun 3
New

Hourly Weather History & Observations

Time (CDT) Temp. Dew Point Humidity Pressure Visibility Wind Dir Wind Speed Gust Speed Precip Events Conditions
12:56 AM 64.8 °F 61.3 °F 89% 29.93 in 10.0 mi East 8.1 mph - N/A   Scattered Clouds
1:56 AM 64.0 °F 60.6 °F 89% 29.92 in 10.0 mi East 6.9 mph - N/A   Scattered Clouds
2:56 AM 63.7 °F 60.6 °F 90% 29.89 in 10.0 mi ESE 11.5 mph - N/A   Overcast
3:56 AM 63.7 °F 60.6 °F 90% 29.86 in 10.0 mi ESE 9.2 mph - N/A   Clear
4:56 AM 64.4 °F 60.4 °F 87% 29.83 in 10.0 mi SE 11.5 mph - N/A   Clear
5:56 AM - - N/A% - - SE 11.5 mph - N/A   Unknown
6:56 AM 64.4 °F 60.4 °F 87% 29.84 in 10.0 mi SE 12.7 mph - N/A   Mostly Cloudy
7:56 AM 65.7 °F 61.0 °F 85% 29.81 in 10.0 mi SE 15.0 mph - N/A   Scattered Clouds
8:56 AM 68.2 °F 61.0 °F 78% 29.80 in 10.0 mi SSE 16.1 mph 27.6 mph N/A   Clear
9:50 AM 69.8 °F 60.8 °F 73% 29.78 in 10.0 mi SSE 15.0 mph - N/A Rain Light Rain
9:56 AM 68.9 °F 61.3 °F 77% 29.78 in 10.0 mi SE 17.3 mph - 0.00 in Rain Light Rain
9:59 AM 69.8 °F 60.8 °F 73% 29.78 in 10.0 mi SSE 15.0 mph - N/A   Scattered Clouds
10:09 AM 69.8 °F 60.8 °F 73% 29.78 in 10.0 mi SSE 18.4 mph - N/A Rain Light Rain
10:19 AM 69.8 °F 60.8 °F 73% 29.78 in 10.0 mi SSE 15.0 mph 25.3 mph N/A   Partly Cloudy
10:56 AM 71.2 °F 60.4 °F 69% 29.80 in 10.0 mi South 15.0 mph 20.7 mph 0.00 in   Mostly Cloudy
11:56 AM 71.4 °F 58.6 °F 64% 29.80 in 10.0 mi SSW 13.8 mph 20.7 mph N/A   Mostly Cloudy
12:03 PM 69.8 °F 59.0 °F 68% 29.81 in 10.0 mi SSW 10.4 mph 20.7 mph N/A Rain Light Rain
12:20 PM 66.2 °F 60.8 °F 83% 29.80 in 8.0 mi South 15.0 mph 24.2 mph N/A Rain Light Rain
12:32 PM 66.2 °F 60.8 °F 83% 29.80 in 8.0 mi SSE 15.0 mph 28.8 mph N/A   Mostly Cloudy
12:36 PM 66.2 °F 60.8 °F 83% 29.80 in 7.0 mi South 15.0 mph 26.5 mph N/A Rain Light Rain
12:47 PM 66.2 °F 60.8 °F 83% 29.78 in 10.0 mi SSE 16.1 mph 23.0 mph N/A   Mostly Cloudy
12:56 PM 65.7 °F 62.1 °F 88% 29.78 in 10.0 mi SSE 15.0 mph 23.0 mph 0.05 in   Mostly Cloudy
1:56 PM 68.9 °F 62.1 °F 79% 29.76 in 10.0 mi SSE 13.8 mph - N/A   Scattered Clouds
2:52 PM 68.0 °F 60.8 °F 78% 29.76 in 10.0 mi South 11.5 mph - N/A   Light Drizzle
2:56 PM 68.7 °F 60.8 °F 76% 29.77 in 10.0 mi South 12.7 mph - 0.00 in   Light Drizzle
3:56 PM 65.7 °F 62.1 °F 88% 29.76 in 10.0 mi SSE 13.8 mph - 0.02 in Rain Light Rain
4:34 PM 64.4 °F 60.8 °F 88% 29.73 in 10.0 mi SE 16.1 mph 23.0 mph N/A   Clear
4:56 PM 63.0 °F 60.3 °F 91% 29.71 in 10.0 mi ESE 16.1 mph - 0.00 in   Clear
5:20 PM 62.6 °F 59.0 °F 88% 29.70 in 10.0 mi ESE 18.4 mph 26.5 mph N/A Rain Light Rain
5:23 PM 62.6 °F 60.8 °F 94% 29.70 in 10.0 mi ESE 16.1 mph 26.5 mph N/A   Partly Cloudy
5:56 PM 63.5 °F 60.8 °F 91% 29.68 in 10.0 mi SE 16.1 mph 24.2 mph 0.01 in   Partly Cloudy
6:51 PM 64.4 °F 60.8 °F 88% 29.68 in 10.0 mi West 8.1 mph - N/A   Light Drizzle
6:56 PM 63.9 °F 60.8 °F 90% 29.69 in 10.0 mi West 5.8 mph - 0.00 in   Light Drizzle
7:01 PM 64.4 °F 60.8 °F 88% 29.69 in 10.0 mi SW 8.1 mph - N/A   Light Drizzle
7:06 PM 64.4 °F 60.8 °F 88% 29.70 in 10.0 mi West 6.9 mph - N/A   Mostly Cloudy
7:21 PM 64.4 °F 60.8 °F 88% 29.70 in 10.0 mi SSW 4.6 mph - N/A   Overcast
7:41 PM 64.4 °F 60.8 °F 88% 29.69 in 10.0 mi South 4.6 mph - N/A   Mostly Cloudy
7:51 PM 64.4 °F 60.8 °F 88% 29.70 in 10.0 mi South 4.6 mph - N/A   Mostly Cloudy
7:56 PM 63.9 °F 60.3 °F 88% 29.70 in 10.0 mi Calm Calm - 0.00 in   Mostly Cloudy
8:41 PM 62.6 °F 60.8 °F 94% 29.70 in 10.0 mi NW 4.6 mph - N/A   Overcast
8:56 PM 62.6 °F 60.4 °F 93% 29.70 in 10.0 mi Calm Calm - N/A   Overcast
9:16 PM 62.6 °F 60.8 °F 94% 29.72 in 10.0 mi Calm Calm - N/A   Overcast
9:56 PM 61.9 °F 60.6 °F 96% 29.73 in 10.0 mi Calm Calm - N/A   Mostly Cloudy
10:21 PM 62.6 °F 60.8 °F 94% 29.73 in 10.0 mi Calm Calm - N/A   Mostly Cloudy
10:56 PM 61.9 °F 60.6 °F 96% 29.73 in 10.0 mi South 3.5 mph - N/A   Overcast
11:13 PM 62.6 °F 60.8 °F 94% 29.72 in 10.0 mi South 3.5 mph - N/A   Light Drizzle
11:17 PM 62.6 °F 60.8 °F 94% 29.72 in 10.0 mi SSW 3.5 mph - N/A   Overcast
11:56 PM 62.1 °F 60.1 °F 93% 29.73 in 10.0 mi SSE 5.8 mph - 0.00 in   Overcast